Probability
2 3 2 0 0 0 0 0 1 2 4 4 2 1 0 0 0 0 0 0 0 0 0 0 0 0 0 0 0 0 0 0 0 0 0 0 0 0 0 0 0 0 0
4 4 3 0 0 0 0 0 1 2 3 2 1 0 0 0 0 0 0 0 0 0 0 0 0 0 0 0 0 0 0 0 0 0 0 0 0 0 0 0 0 0 0
5 5 2 0 0 0 0 0 0 1 1 1 0 0 0 0 0 0 0 0 0 0 0 0 0 0 0 0 0 0 0 0 0 0 0 0 0 0 0 0 0 0 0
5 5 3 1 0 0 0 0 0 0 0 0 0 0 0 0 0 0 0 0 0 0 0 0 0 0 0 0 0 0 0 0 0 0 0 0 0 0 0 0 0 0 0
4 4 5 3 1 0 0 1 1 1 1 1 1 0 0 0 0 0 0 0 0 0 0 0 0 0 0 0 0 0 0 0 0 0 0 0 0 0 0 0 0 0 0
3 5 7 6 2 0 0 1 2 3 4 4 4 3 2 1 0 0 0 0 0 0 0 0 0 0 0 0 0 0 0 0 0 0 0 0 0 0 0 0 0 0 0
3 6 9 7 2 0 0 0 2 4 6 6 7 7 4 1 0 0 0 0 0 0 0 0 0 0 0 0 0 0 0 0 0 0 0 0 0 0 0 0 0 0 0
3 6 10 9 3 1 2 1 3 5 7 8 9 9 5 1 0 0 0 0 0 0 0 0 0 0 0 0 0 0 0 0 0 0 0 0 0 0 0 0 0 0 0
4 7 10 9 5 3 3 4 6 9 10 11 11 10 7 4 2 1 0 0 0 0 0 0 0 0 0 0 0 0 0 0 0 0 0 0 1 0 0 0 0 0 0
7 8 9 9 7 5 4 7 11 14 15 16 15 13 10 6 3 2 1 1 1 0 0 0 0 0 0 0 1 1 0 0 0 0 0 2 4 2 0 0 0 0 0
15 12 10 10 9 6 6 9 13 15 18 19 19 19 14 7 4 4 6 7 5 1 0 0 0 0 0 1 2 3 1 0 0 0 5 11 11 4 1 0 0 0 0
28 24 19 18 16 12 11 14 16 20 24 25 27 29 25 17 13 10 13 17 13 6 3 3 3 1 0 3 7 7 4 2 2 2 13 26 21 7 1 0 0 1 1
43 39 35 34 33 28 25 25 26 31 37 38 38 43 44 39 33 27 26 28 25 19 13 12 10 5 2 6 10 9 6 6 7 9 23 38 30 10 2 0 0 2 3
56 53 49 53 56 54 49 46 43 44 49 51 52 56 59 59 53 46 42 39 37 33 26 23 20 12 6 6 8 8 8 9 10 15 30 44 35 16 5 1 1 2 4
66 62 60 66 74 76 74 67 60 57 56 59 63 65 67 67 63 56 53 48 43 38 33 29 23 16 11 10 7 6 6 8 8 12 26 37 32 19 10 4 3 5 6
69 67 69 76 84 86 83 78 71 66 64 64 66 66 66 64 60 57 55 49 42 38 36 29 21 17 17 15 9 5 5 6 5 7 15 23 24 18 12 7 7 10 13
69 70 72 77 82 83 82 79 73 68 66 65 62 59 55 53 53 55 55 49 42 37 35 29 20 18 19 16 10 6 6 6 5 5 7 13 17 14 10 8 10 16 20
73 72 71 69 72 74 75 74 70 65 62 59 55 49 46 46 48 51 52 48 40 34 30 25 20 17 17 14 9 5 5 7 6 3 3 6 11 11 7 8 12 18 21
72 70 65 63 63 65 65 65 64 60 54 49 45 43 42 43 44 45 44 41 34 28 24 21 17 15 14 11 6 3 3 5 4 1 0 2 6 7 6 8 13 18 20
60 58 56 58 60 59 57 56 53 49 43 38 35 34 35 36 37 37 36 33 28 23 22 20 16 13 11 7 4 2 1 1 1 0 0 0 2 3 4 7 13 18 20
45 43 42 47 51 52 51 46 40 35 31 28 24 21 20 22 25 28 30 29 25 21 22 19 14 10 8 6 4 2 1 0 0 0 0 0 1 1 2 5 11 16 19
33 31 29 32 37 40 40 33 27 24 22 18 14 12 11 11 13 18 24 26 23 19 18 15 10 7 6 5 4 2 1 0 0 0 0 1 2 1 1 2 5 10 13
21 20 18 20 23 25 24 20 17 18 17 13 11 11 11 9 10 14 19 21 19 16 13 10 7 6 5 5 4 3 1 0 0 0 0 1 2 1 0 0 1 3 4
11 11 11 13 14 13 12 11 13 14 14 11 11 12 11 9 9 12 15 17 18 16 13 9 7 5 4 5 5 4 3 1 0 0 0 1 2 1 0 0 0 0 0
6 6 7 9 10 10 10 11 13 13 11 10 10 11 10 9 8 8 11 15 19 18 16 15 12 8 6 6 8 8 6 4 2 1 1 1 1 1 0 0 0 0 0
6 6 6 7 9 11 12 12 12 12 10 9 9 10 10 9 7 7 8 13 18 19 19 20 18 12 9 9 11 12 10 7 5 3 2 1 1 0 0 0 0 0 0
Wind_Speed
15 19 22 18 17 16 15 14 14 15 15 15 15 15 14 14 13 12 11 10 10 9 8 8 8 7 7 7 8 8 9 9 10 10 10 10 10 10 11 10 10 12 13
18 20 22 19 18 16 15 14 14 14 14 15 15 14 14 13 13 12 11 10 10 9 8 7 7 7 7 8 8 9 9 9 9 10 10 10 9 9 9 6 4 12 12
19 21 21 18 18 17 16 15 14 14 14 14 14 14 13 13 12 12 11 10 9 8 8 7 7 7 7 8 8 8 8 8 8 8 8 9 10 8 8 7 10 13 11
20 20 19 20 18 17 16 15 15 14 14 14 14 13 13 12 12 11 10 10 9 8 8 7 7 7 7 7 8 8 8 8 8 8 7 7 9 10 8 8 10 10 11
19 18 19 21 19 18 16 16 15 14 14 14 13 13 12 12 11 11 10 9 8 8 8 7 7 7 7 7 7 7 7 7 7 9 5 5 7 10 8 8 9 10 10
19 18 20 20 19 18 17 16 15 14 14 13 13 12 12 11 11 10 10 9 8 8 8 7 7 7 7 7 7 7 7 7 9 7 5 6 7 10 8 9 9 9 10
18 17 20 19 18 18 17 16 15 14 14 13 13 12 11 10 10 10 9 9 8 8 8 8 8 7 7 7 7 7 7 7 9 5 6 5 6 10 8 9 9 9 10
16 16 19 19 18 17 16 16 15 14 13 13 12 11 10 10 9 9 9 9 9 8 8 8 8 8 8 8 8 8 8 9 10 7 7 6 8 8 8 9 10 10 11
15 15 16 17 16 16 15 15 14 13 13 12 12 11 10 10 9 9 9 9 9 9 9 9 9 9 10 10 10 10 10 10 12 7 8 6 11 10 10 10 10 11 11
13 13 14 15 15 15 15 15 14 13 13 12 12 11 11 10 10 10 10 11 10 10 10 10 10 10 10 11 11 12 12 11 14 11 8 7 13 11 11 12 12 12 13
12 11 12 14 13 13 13 14 14 14 13 12 12 13 11 11 12 11 13 10 11 12 12 12 12 12 11 13 14 13 12 10 13 10 7 9 12 12 13 13 13 14 14
15 14 11 11 12 12 9 10 10 11 11 11 10 11 11 9 7 8 6 9 12 13 13 14 13 13 13 10 13 15 9 13 11 8 7 12 12 13 14 14 14 14 15
14 13 12 11 10 10 7 7 6 6 6 9 10 9 8 7 6 7 6 8 10 13 12 12 13 11 10 8 7 9 10 9 7 7 7 14 14 15 15 15 15 15 16
12 13 12 11 9 9 8 6 6 6 5 6 8 10 8 6 6 6 5 6 6 6 7 8 7 9 9 10 10 10 10 8 7 7 6 13 15 16 16 16 15 16 16
10 11 11 10 9 8 7 6 7 7 7 7 6 7 8 7 7 7 6 6 7 6 7 7 8 8 9 9 9 10 11 11 10 10 6 12 15 16 17 17 17 17 16
8 8 9 10 9 8 7 7 6 6 5 6 6 7 8 7 7 6 7 7 7 7 6 7 8 8 7 7 9 10 11 11 11 11 9 10 15 16 16 17 17 17 17
5 6 6 8 8 9 9 8 7 6 6 6 5 7 8 8 7 6 7 7 6 6 7 7 8 7 7 8 9 10 9 10 9 10 10 8 9 15 16 16 16 16 16
2 4 5 5 7 8 7 7 6 5 5 5 5 5 8 8 8 7 6 6 6 6 6 6 6 6 6 6 6 7 7 7 9 9 9 9 8 8 13 16 15 14 15
5 3 2 1 3 4 5 5 5 5 5 5 5 5 7 9 8 7 6 5 5 5 6 7 5 6 6 6 6 6 7 7 7 9 9 9 8 8 8 10 14 13 14
6 5 4 3 2 2 2 3 3 4 5 5 5 6 7 6 7 7 6 6 7 6 6 6 6 5 5 5 6 5 6 6 6 7 8 8 8 9 10 9 9 11 15
6 5 4 4 3 2 1 3 3 3 4 4 4 5 6 7 7 6 6 5 6 6 6 7 7 7 6 4 5 5 6 7 6 6 7 7 8 8 7 7 7 7 8
7 6 5 4 3 2 1 2 2 3 3 3 3 3 5 6 6 6 6 6 7 6 7 7 7 6 5 4 5 5 5 6 6 6 5 6 6 6 7 8 7 7 7
7 6 5 4 3 3 2 1 1 3 3 2 2 2 3 4 5 6 6 6 6 7 7 7 7 8 6 5 5 5 5 3 3 5 5 5 4 5 6 5 7 7 8
5 4 4 3 3 2 1 2 3 3 3 2 2 1 2 4 5 6 6 6 6 6 6 7 7 6 7 6 5 5 5 4 4 3 6 6 5 5 5 5 5 6 7
5 4 3 4 4 3 3 3 4 4 3 2 1 2 2 2 3 4 5 5 5 5 6 6 5 7 7 7 6 5 6 5 7 6 4 4 5 5 5 5 4 4 5
5 5 5 5 5 5 5 5 5 5 5 4 4 3 3 2 2 2 3 3 4 4 5 6 6 8 8 8 7 6 6 6 7 6 6 6 5 4 4 4 4 4 4
Wind_Direction
160 151 152 163 163 162 160 157 156 157 158 159 159 158 157 157 156 155 154 151 146 142 135 128 122 119 118 116 115 113 112 114 116 118 118 118 119 120 121 131 146 117 118
153 148 154 163 164 163 161 158 155 156 157 158 160 160 159 159 159 159 158 156 154 151 142 135 129 123 121 119 119 118 118 120 123 124 128 128 122 121 124 130 84 111 127
151 148 157 163 165 164 162 159 158 158 159 159 160 161 162 162 162 163 163 161 160 157 150 145 140 134 131 128 126 126 126 128 129 136 170 153 128 128 128 118 105 122 130
150 151 160 160 166 166 164 163 162 162 162 162 163 164 166 167 167 167 167 167 167 163 157 155 152 147 142 138 137 137 139 141 143 173 191 135 136 132 139 134 133 138 138
152 155 153 161 167 168 167 167 167 166 165 166 167 168 170 172 173 173 173 175 175 172 168 166 165 161 155 151 149 149 152 155 165 217 146 138 127 135 152 150 151 151 148
157 156 151 165 168 170 170 171 171 170 170 171 172 173 175 177 179 181 182 184 185 183 180 178 178 174 171 168 166 166 168 171 200 197 158 169 142 144 163 166 165 162 159
160 157 154 166 169 172 174 174 175 175 176 176 177 179 181 184 188 190 191 193 195 195 193 192 191 189 188 186 185 184 186 193 231 193 180 187 136 143 173 180 178 174 172
161 160 151 166 172 174 176 178 179 180 181 182 183 185 188 192 198 201 202 204 206 208 207 205 205 203 201 199 198 200 202 220 226 215 203 192 133 158 187 192 191 187 183
165 164 157 169 175 178 181 182 183 185 186 188 189 192 197 201 207 214 216 217 217 218 219 220 219 217 214 209 208 208 212 225 251 222 215 202 149 177 199 203 202 199 193
170 173 166 175 177 182 183 185 189 190 191 194 197 199 203 210 216 221 227 219 226 229 229 230 232 230 226 220 217 215 216 221 239 231 216 185 154 187 207 211 209 206 202
177 181 180 178 181 190 191 180 191 195 197 200 203 204 209 219 216 209 224 217 226 235 237 236 236 235 233 226 223 220 218 229 229 237 221 156 164 196 211 215 214 211 207
181 184 187 190 183 195 198 184 201 204 197 211 214 205 211 221 230 233 200 215 233 239 242 241 241 240 235 231 216 213 224 229 241 229 212 155 178 204 213 217 217 214 210
180 183 186 194 191 200 201 202 205 213 208 215 222 219 225 229 224 230 226 210 223 231 237 230 229 235 234 234 232 218 228 234 231 237 211 167 190 210 217 219 220 217 214
181 185 190 190 193 205 212 212 214 219 217 221 215 221 221 226 236 236 239 245 234 230 236 245 241 240 242 242 240 238 234 234 237 236 217 178 195 211 218 220 221 220 218
182 187 192 192 196 202 215 232 226 228 232 227 230 222 226 227 231 235 235 241 248 246 240 243 248 252 249 244 243 239 237 234 237 234 222 192 200 212 219 221 221 221 219
184 188 190 195 195 202 211 229 239 236 232 240 229 230 228 231 234 240 240 240 245 247 251 252 253 254 250 246 245 242 239 235 234 233 233 209 205 212 218 221 222 221 220
167 175 182 194 198 207 216 224 234 238 237 237 235 235 233 234 233 240 250 248 247 245 244 249 257 252 244 239 240 243 240 238 239 237 237 234 218 209 213 220 221 220 219
122 160 187 208 207 217 229 230 240 244 246 248 247 244 241 240 237 236 244 249 256 254 248 246 249 247 245 245 242 244 240 234 238 238 237 229 229 229 210 211 217 218 218
58 66 101 253 252 245 247 245 245 245 247 253 258 254 247 245 242 237 241 245 248 251 251 254 242 247 246 247 245 235 241 238 236 239 239 234 228 231 233 200 205 214 216
55 58 59 59 25 329 284 263 252 248 242 244 246 249 257 251 244 239 241 240 240 242 242 245 248 241 254 252 259 254 246 243 236 237 238 232 225 227 227 225 208 208 210
60 63 53 47 47 14 324 283 263 258 260 255 250 258 258 249 238 232 236 233 239 237 237 235 236 229 234 234 246 244 235 235 236 236 233 237 223 222 224 222 227 227 204
58 58 56 48 52 40 11 307 300 300 283 279 267 253 261 249 241 234 234 236 231 229 226 231 231 247 233 215 244 250 233 203 211 222 220 221 228 219 216 214 219 219 235
42 35 30 27 33 39 18 282 269 261 266 275 286 272 262 262 252 251 245 242 240 236 223 223 223 231 237 220 231 255 259 240 180 184 214 216 217 226 223 211 217 216 224
25 22 15 4 2 3 303 299 299 291 300 304 292 293 276 263 263 255 244 237 238 238 233 229 220 229 238 235 211 234 268 314 272 199 194 190 201 220 231 234 221 213 223
2 351 349 344 331 321 305 293 288 294 298 296 279 246 259 255 256 260 251 244 239 241 239 245 237 234 234 243 237 221 219 225 247 265 226 195 202 205 206 220 229 226 221
340 333 329 325 319 313 305 302 295 297 294 289 276 262 248 234 237 250 259 254 248 250 244 244 244 236 243 248 251 245 234 228 224 233 239 230 226 209 204 220 228 221 216